Theta_e
326 326 328 327 326 326 325 325 325 325 325 324 325 327 328 327 327 328 328 329 329 330 329 330 331 330 332 332 333 332 332 330 328 327 325 325 324 324 323 324 324 325 325 326
324 327 326 324 324 324 324 325 325 325 324 324 325 327 328 327 327 327 327 327 327 327 328 329 330 330 331 331 332 331 331 332 330 328 328 328 327 326 326 326 327 327 326 326
327 326 323 323 324 325 325 325 326 326 325 325 325 326 328 327 327 326 325 325 325 325 325 325 325 325 326 328 329 331 331 331 331 330 328 330 330 329 327 327 327 328 327 327
325 324 324 325 325 324 324 325 324 322 323 324 326 327 329 329 328 326 325 325 325 324 324 323 322 322 321 321 321 322 323 324 324 326 325 326 325 325 326 326 325 325 326 326
327 325 325 325 325 323 322 320 320 320 321 322 322 323 327 328 328 327 326 325 325 324 323 322 322 321 320 319 318 318 318 319 320 321 322 322 321 321 322 322 320 321 321 321
326 324 324 324 323 321 320 320 321 322 322 322 324 323 319 326 326 323 326 324 324 323 322 321 320 319 319 318 317 317 317 317 317 318 318 320 320 320 320 320 320 319 317 317
327 326 324 323 323 322 320 321 324 325 324 324 323 322 320 327 325 324 322 324 323 322 321 321 319 318 317 317 317 317 316 316 315 315 315 316 317 319 320 320 318 317 317 316
327 330 326 322 322 320 319 319 322 324 322 320 320 321 328 326 324 322 322 322 322 321 320 319 317 317 316 316 315 315 315 314 314 313 313 314 315 315 316 316 316 316 316 316
331 329 323 321 320 318 321 324 320 322 325 323 321 320 324 323 323 322 321 321 320 319 319 318 316 315 315 314 313 313 313 313 313 313 314 314 314 315 315 316 317 315 315 314
329 330 325 322 319 321 320 320 324 325 327 321 320 319 325 324 323 320 320 320 320 319 318 317 315 314 314 313 313 312 312 312 313 312 312 312 313 313 314 312 311 311 311 312
327 328 326 320 321 320 322 323 322 322 324 324 323 321 322 322 321 320 320 320 320 318 317 316 315 314 312 311 311 311 311 311 311 311 311 311 311 312 311 311 310 310 309 309
326 328 327 323 320 318 319 320 321 325 327 323 323 324 323 321 321 321 320 320 319 318 316 315 313 312 310 310 310 310 311 310 310 310 310 310 310 309 309 308 309 309 308 308
326 327 329 324 324 322 322 321 323 323 325 329 333 327 322 321 319 319 318 317 316 315 314 313 311 310 309 310 311 311 310 310 309 309 309 308 308 308 308 309 308 308 308 307
321 325 327 327 322 319 321 321 320 322 332 328 326 324 322 319 319 318 317 315 314 313 313 312 311 310 310 310 310 310 309 308 308 308 307 307 307 307 307 307 307 307 307 307
324 327 324 323 320 318 318 319 319 320 321 326 324 321 319 318 318 316 315 314 314 313 313 311 310 311 311 310 309 308 308 307 306 304 305 305 306 305 305 305 306 306 306 307
324 323 321 322 320 320 320 319 320 320 321 322 320 319 319 318 317 315 314 314 313 314 312 311 312 310 310 309 308 307 307 305 303 303 303 303 304 304 304 304 304 305 305 305
324 324 323 326 322 324 325 324 321 319 319 319 319 318 317 317 316 314 313 314 314 312 311 312 312 310 309 307 307 305 303 303 303 303 303 303 303 303 304 304 305 305 305 305
325 324 323 325 324 325 326 322 320 320 319 318 318 317 317 316 315 313 314 314 312 311 312 312 310 309 308 306 303 303 302 303 303 303 303 303 304 304 304 304 305 305 305 304
322 323 325 327 325 322 320 324 322 325 320 318 319 317 316 316 314 314 314 313 312 311 312 310 309 308 306 303 302 302 302 302 303 303 303 304 304 304 305 305 305 306 305 305
324 323 327 326 324 325 324 322 318 317 324 319 317 318 317 316 320 315 314 312 311 310 310 310 308 307 304 302 302 302 302 302 302 303 304 304 304 304 306 306 306 306 305 305
326 327 326 324 323 322 321 320 318 321 326 318 318 318 318 317 316 315 314 312 310 311 310 308 307 304 303 302 302 302 302 303 303 304 304 305 305 306 307 307 306 305 305 305
326 327 325 323 323 321 321 319 323 321 320 320 318 317 316 316 315 314 312 311 311 310 308 307 304 303 303 302 302 303 303 303 304 305 306 307 307 307 307 306 305 305 305 305
323 322 324 325 322 325 321 320 318 319 319 318 318 316 316 315 313 312 311 312 311 309 307 306 303 303 302 302 302 302 303 303 304 306 307 306 306 306 306 306 305 303 303 305
321 319 321 318 318 319 319 319 318 318 317 317 316 316 315 314 313 311 311 312 310 308 306 305 303 303 303 302 302 302 303 303 305 307 307 306 306 307 306 305 304 302 303 302
319 320 320 319 318 319 319 318 317 317 316 316 315 314 313 312 311 311 312 311 308 306 305 304 303 303 302 302 302 302 303 304 305 307 306 306 307 307 306 306 305 303 302 303
318 319 321 322 320 320 319 317 317 317 317 315 314 313 311 311 312 311 311 309 307 306 305 304 303 303 302 302 302 303 303 303 305 308 308 308 309 305 304 304 305 305 304 304
Wind_Speed
6 12 3 13 11 12 12 7 10 3 6 10 9 3 4 1 3 3 4 5 7 9 11 14 15 14 12 9 6 5 5 6 6 6 7 6 9 5 6 6 3 3 3 5
9 1 8 6 8 10 11 12 12 1 4 7 12 10 7 5 1 1 2 5 5 7 10 11 12 13 12 10 9 8 8 8 8 8 7 9 10 7 6 5 4 6 6 7
12 10 1 5 2 9 10 10 11 8 8 9 14 15 15 8 6 3 3 3 4 6 8 8 10 11 11 10 9 8 7 7 8 9 10 9 9 11 12 10 7 8 6 9
6 3 2 5 0 9 13 10 8 12 12 13 3 11 11 15 10 7 4 1 3 4 5 7 9 10 9 9 7 7 8 10 9 9 9 8 12 14 18 17 18 16 14 15
7 2 4 5 7 9 13 11 11 11 12 14 16 10 9 10 12 9 6 2 5 6 6 7 9 9 10 10 11 12 12 12 12 13 12 13 16 16 17 18 19 18 19 22
8 3 3 7 6 4 9 12 13 13 11 11 15 3 5 9 9 5 6 5 3 9 10 7 11 13 15 16 18 17 18 19 19 18 18 18 19 19 20 20 21 23 25 23
9 10 6 4 12 8 6 9 8 6 9 7 6 5 7 8 5 8 7 4 5 8 11 12 18 21 22 21 20 21 22 22 21 21 21 21 21 22 23 24 26 24 25 25
11 6 4 2 5 8 8 7 6 6 7 13 12 9 7 8 5 2 2 4 9 14 12 17 22 24 23 22 24 25 25 25 24 24 25 23 24 26 27 26 25 24 24 26
7 2 6 4 3 5 5 4 7 7 13 10 7 1 14 7 3 6 9 8 12 10 15 16 22 28 26 26 25 26 27 27 26 27 26 25 25 26 27 28 26 28 24 27
3 10 4 7 4 4 6 6 5 4 4 9 10 13 8 2 5 11 10 14 15 18 19 18 21 24 26 27 28 28 28 28 28 29 29 28 28 28 22 19 21 22 25 28
3 3 4 3 10 4 6 9 5 3 6 6 8 7 10 7 9 12 16 17 17 15 17 20 22 28 29 27 30 31 31 32 33 31 31 31 27 26 27 28 29 27 26 29
5 4 9 6 7 4 7 9 3 3 7 8 11 10 4 6 10 11 12 11 12 19 20 20 22 25 29 31 32 32 33 34 35 31 28 28 27 30 28 26 26 23 23 26
2 3 5 8 9 5 7 8 7 7 6 10 9 9 0 15 16 16 19 21 19 20 21 21 25 27 30 30 33 34 33 31 30 30 29 26 25 24 26 26 26 26 25 26
2 8 10 10 14 7 7 9 10 10 7 12 13 19 19 18 16 17 19 20 21 21 23 20 20 29 33 32 32 31 29 29 28 28 27 28 29 29 29 30 27 28 28 26
4 11 12 12 12 12 13 13 13 14 14 14 17 19 18 15 17 17 20 20 21 22 21 22 23 27 34 35 33 32 27 25 25 29 29 29 30 31 31 29 29 28 27 26
5 8 8 13 14 13 15 15 15 14 14 15 16 18 14 16 15 19 20 21 21 21 24 25 23 34 34 33 32 27 25 28 26 28 28 29 30 30 29 29 29 28 28 27
8 7 7 12 6 8 13 10 9 10 7 10 14 16 15 16 16 18 21 21 20 24 25 22 24 26 27 30 25 27 30 28 28 27 29 29 29 28 29 29 28 27 27 25
8 9 9 11 12 13 3 3 4 7 10 11 13 15 14 15 17 19 19 20 23 24 22 21 28 27 28 24 30 29 29 29 28 28 28 28 28 27 27 27 25 26 24 24
9 9 9 8 10 13 13 5 1 3 10 14 11 10 16 17 18 18 16 21 22 23 25 29 25 30 25 28 30 29 29 27 27 27 27 27 26 25 25 24 24 22 21 21
9 10 9 10 10 8 4 6 4 3 7 5 6 13 16 16 12 14 21 22 25 26 31 24 29 24 26 28 27 27 27 27 27 26 27 28 27 25 24 22 22 20 20 23
8 9 12 11 11 10 5 10 4 3 4 9 13 15 16 14 14 20 21 24 29 29 29 29 24 24 26 28 27 26 26 25 28 29 28 28 26 23 21 19 20 20 21 21
8 6 6 7 12 13 11 9 4 4 10 12 14 14 15 17 19 20 22 22 26 29 27 26 21 25 28 27 26 25 26 29 30 29 26 23 19 18 16 18 20 20 20 21
6 10 5 5 2 4 6 5 4 8 12 13 13 13 16 17 19 21 21 18 27 23 26 20 23 25 26 26 26 25 29 30 30 26 18 18 19 19 18 16 16 20 16 14
11 8 6 6 5 7 9 9 8 9 9 10 11 14 15 17 19 20 19 18 19 26 23 21 24 23 24 27 28 26 29 29 27 21 18 19 19 18 15 14 14 16 12 12
4 7 8 12 13 11 10 7 5 6 8 10 12 14 15 17 18 18 18 20 22 23 22 22 22 22 24 27 28 27 27 28 25 19 19 19 18 16 17 16 13 11 15 12
11 13 10 8 6 3 4 2 4 6 9 10 11 13 17 17 15 22 16 20 19 23 22 20 22 22 24 25 27 26 25 27 25 18 15 17 17 19 17 17 16 11 11 19
Wind_Direction
235 261 298 16 348 333 325 311 292 261 83 289 276 319 142 190 219 112 65 54 64 63 53 50 49 47 52 46 33 7 3 352 317 279 259 221 238 209 232 236 226 283 317 321
235 342 33 326 307 295 293 282 272 290 194 285 272 239 166 222 172 128 84 79 50 56 59 58 53 46 46 40 31 35 18 12 345 336 332 323 324 288 280 281 269 281 293 306
5 83 142 278 259 315 263 291 321 310 310 233 255 259 182 192 188 152 125 103 83 40 26 31 46 42 34 41 32 32 12 1 350 344 323 310 288 271 265 279 296 266 282 294
53 53 297 257 166 339 303 13 305 290 280 277 144 285 172 177 202 202 183 169 14 16 16 18 356 13 9 8 22 13 4 355 348 340 328 305 293 288 294 300 300 300 286 276
102 160 306 275 16 333 317 333 303 296 281 280 267 233 84 151 206 194 206 272 304 326 348 350 350 344 332 337 338 332 330 324 318 317 311 306 300 295 292 291 292 289 283 275
94 48 330 8 300 298 302 277 262 249 248 251 233 275 243 177 208 242 162 225 310 315 316 325 318 320 315 320 313 315 317 314 313 307 297 289 284 284 287 287 289 285 282 281
184 184 129 314 310 177 287 318 297 235 205 255 99 278 302 73 51 353 351 329 302 307 294 329 332 321 313 310 314 315 309 307 306 303 304 299 292 287 280 279 283 291 286 280
286 183 182 66 354 323 302 318 289 305 323 316 319 241 125 86 91 36 343 292 299 294 328 315 303 303 314 319 317 311 304 303 304 303 301 300 296 288 285 278 278 285 288 287
326 109 117 60 354 307 18 272 14 299 279 262 279 27 132 92 162 233 243 284 295 303 300 302 315 323 326 314 308 307 304 299 304 306 303 296 291 287 286 285 282 276 282 285
8 287 145 97 250 169 300 16 242 201 291 312 333 300 75 224 298 337 316 303 317 329 324 314 318 314 303 305 304 303 303 303 302 299 297 299 301 295 297 316 310 305 298 293
329 247 165 228 209 317 181 204 224 319 300 305 307 335 42 18 330 313 308 319 342 325 312 307 314 304 305 318 316 313 311 308 303 300 300 297 298 302 297 293 291 290 291 287
66 301 273 248 57 289 285 301 297 277 279 285 308 307 55 333 283 294 296 334 318 278 298 307 315 321 326 319 312 314 314 310 306 306 308 311 305 298 293 289 288 284 279 283
152 240 282 246 184 208 250 243 226 260 279 273 294 280 337 331 335 330 334 327 325 314 318 325 323 324 316 320 323 325 324 320 315 310 306 306 298 294 291 293 290 285 279 275
351 267 259 267 332 334 261 236 245 254 267 272 276 303 307 328 330 336 328 325 322 323 318 321 331 325 323 332 330 322 318 310 309 310 303 298 293 290 293 289 286 284 281 278
257 263 267 263 283 285 278 275 279 275 274 277 289 301 313 329 336 326 326 320 319 322 328 335 327 332 334 324 323 320 317 314 314 305 298 294 293 291 289 288 286 284 281 278
209 268 274 281 267 262 278 278 276 271 273 275 291 299 325 332 322 325 321 325 332 326 329 327 340 330 323 327 322 319 312 310 303 296 292 292 289 286 285 284 283 283 282 277
233 270 264 283 273 282 280 291 249 290 287 292 293 314 320 319 322 324 320 328 330 334 326 339 331 322 331 327 325 322 311 303 297 291 290 289 288 285 283 282 281 278 276 276
240 249 272 271 290 277 68 92 345 292 288 297 297 312 320 310 322 317 321 334 333 327 334 337 328 327 327 327 322 311 306 302 298 293 290 288 287 282 281 280 277 277 274 272
237 254 267 263 280 303 261 167 73 84 296 300 292 323 305 318 313 309 336 337 327 333 342 333 329 327 329 321 313 309 307 306 302 296 293 292 290 287 285 282 280 275 275 273
227 232 263 268 273 276 26 114 85 319 285 56 302 314 314 315 311 318 332 326 336 337 338 332 332 332 324 315 313 312 308 305 301 301 298 295 292 288 286 282 282 280 277 274
211 225 233 243 253 258 104 133 137 259 301 341 320 311 318 316 315 319 323 337 330 344 332 338 332 329 319 315 316 309 307 305 306 303 300 300 298 291 285 285 287 284 282 280
219 216 253 249 264 274 117 135 203 279 318 302 310 313 313 316 316 322 333 330 340 336 339 336 336 322 319 317 318 316 314 316 315 310 306 303 307 308 310 301 299 298 292 281
254 243 273 192 262 112 196 246 281 283 303 309 312 316 309 314 324 331 332 332 340 342 341 331 326 318 319 322 324 319 320 323 322 321 323 326 322 323 325 313 308 315 314 300
198 238 241 268 266 277 230 248 270 279 294 315 306 299 327 321 329 331 325 341 342 342 328 332 323 319 319 324 325 324 325 328 328 333 339 335 336 336 337 327 327 341 327 325
299 158 235 255 264 258 247 257 304 301 307 300 309 326 324 329 332 328 336 336 339 335 322 325 320 319 321 325 325 328 330 333 331 337 336 339 338 340 343 345 340 343 6 325
248 236 245 258 320 270 259 295 286 290 298 316 323 325 326 330 327 329 340 331 336 331 321 323 321 322 325 325 328 332 335 337 332 320 327 338 339 358 2 355 359 11 356 16